Wind_Speed
28 29 30 32 33 32 31 32 33 34 36 37 37 37 36 37 40 41 41 42 42 42 42 42 41 42 42 40 40 41 42 43 43 42 42 42 41 41 41 41 42 41 40
29 30 30 32 31 30 30 31 32 32 33 34 34 34 34 36 38 39 39 40 40 40 40 39 39 40 41 40 40 40 40 41 41 40 40 41 41 40 40 40 41 40 40
29 30 30 30 29 28 28 28 29 30 31 31 32 33 34 36 36 37 38 37 37 38 38 38 38 38 39 40 41 41 41 41 41 40 39 40 39 38 39 40 41 41 40
30 32 31 30 29 28 27 27 26 26 27 29 31 32 33 34 35 35 35 34 34 35 36 37 36 37 38 40 40 40 40 40 40 40 39 38 37 36 38 40 41 41 39
31 32 31 30 29 28 27 26 25 25 26 28 29 31 32 32 33 32 32 32 32 33 34 35 36 36 37 38 38 38 38 38 39 39 38 37 36 37 38 39 40 39 38
31 31 30 29 28 27 26 25 25 26 27 28 29 29 30 30 30 31 31 30 30 32 33 33 34 34 35 36 37 37 36 37 36 36 37 38 38 38 38 39 38 38 37
31 30 29 28 28 27 26 25 25 26 26 26 27 27 27 27 28 28 29 30 30 30 31 31 32 33 34 36 36 35 36 36 36 36 36 37 37 37 37 37 38 38 36
30 29 29 28 27 26 25 25 25 26 26 25 26 26 26 26 26 27 29 29 29 30 30 30 31 32 33 34 34 35 35 35 34 34 35 36 36 35 35 36 36 37 35
31 30 30 29 27 24 24 24 25 25 26 26 25 25 25 25 26 27 28 28 28 28 29 29 30 30 32 33 32 33 32 32 34 34 35 36 35 35 34 34 34 33 32
31 31 29 28 26 24 24 24 25 25 25 25 25 25 25 25 25 25 26 26 26 26 27 28 28 29 30 30 30 30 31 31 31 31 32 33 33 33 33 32 31 31 30
31 30 29 27 26 25 25 25 26 26 25 25 25 25 25 24 24 25 25 25 26 26 26 27 27 28 28 27 28 29 29 30 30 29 29 31 32 32 31 31 29 29 28
31 30 29 28 27 26 26 26 26 26 25 24 24 23 23 24 24 24 24 24 25 25 25 25 26 27 27 27 28 28 27 27 28 28 29 30 30 29 29 30 29 27 27
30 30 29 28 27 27 27 27 27 26 25 23 23 23 23 24 23 23 23 23 24 25 24 24 25 25 25 26 26 27 27 26 26 27 28 29 28 28 27 28 28 27 26
31 30 29 28 27 28 29 28 28 27 25 24 24 23 23 24 23 23 23 24 24 23 22 23 24 24 25 25 25 25 25 25 26 26 26 26 26 26 26 26 26 26 26
31 31 30 29 29 29 29 28 27 26 25 24 23 24 24 23 23 23 23 23 23 22 23 23 23 23 23 24 24 24 25 24 24 24 24 24 24 25 26 26 25 24 24
33 32 31 30 30 30 29 28 27 26 25 24 23 23 22 22 22 22 22 22 23 23 23 23 22 22 22 23 23 24 24 23 23 22 22 23 24 24 24 23 23 23 23
34 33 32 31 30 30 29 28 27 26 25 23 23 22 22 22 22 22 22 24 24 23 23 22 22 22 22 21 22 22 22 22 21 21 21 21 22 22 21 21 21 21 21
34 33 32 31 31 30 30 28 27 25 24 24 23 23 22 21 21 21 22 23 23 22 22 22 21 21 21 21 21 21 21 21 21 20 20 20 19 19 19 20 20 20 19
34 33 32 32 31 31 30 28 27 26 25 24 24 24 23 22 22 22 23 23 23 22 22 22 21 21 21 21 20 20 20 19 19 18 18 18 18 17 17 18 18 18 17
34 33 32 32 31 31 30 29 27 27 26 26 25 25 24 24 23 22 22 22 22 21 21 21 20 20 20 20 19 18 18 18 17 16 16 16 16 16 16 16 16 16 15
34 33 32 31 30 30 29 28 28 27 27 27 25 24 23 23 22 21 21 21 21 20 20 19 19 19 18 18 18 18 17 17 15 15 15 15 15 15 15 15 15 14 13
32 31 30 29 28 28 27 27 26 26 26 26 24 23 22 22 21 20 20 19 19 19 18 18 17 17 16 16 16 16 16 16 15 14 14 15 14 14 13 13 13 13 12
30 29 28 27 27 26 26 26 25 24 24 23 22 21 20 20 20 19 18 16 16 17 17 17 16 15 15 15 15 15 14 14 14 14 14 14 13 12 11 11 11 12 11
29 28 27 26 26 25 25 25 24 23 21 20 20 20 19 18 18 17 17 16 15 15 15 15 15 15 14 14 14 14 13 13 13 13 12 11 11 11 11 11 11 12 11
27 27 26 25 25 25 24 23 22 21 20 19 19 18 17 17 16 16 16 15 15 15 15 14 15 15 14 14 14 13 13 13 12 12 11 10 10 11 12 11 12 11 11
26 26 25 25 25 24 22 21 20 19 18 18 17 17 16 16 16 16 16 16 16 15 15 15 15 15 14 14 14 13 13 13 12 11 11 10 10 11 12 12 12 12 11
Wind_Direction
302 300 300 299 294 289 283 278 273 269 265 261 259 260 262 261 260 260 261 260 261 260 257 256 258 257 256 255 256 257 259 260 259 258 256 256 259 260 262 264 265 266 269
304 304 305 302 298 292 288 282 277 271 266 262 260 262 263 263 262 261 262 261 260 258 256 257 259 257 255 255 256 256 258 260 260 259 256 256 258 259 260 263 264 266 269
307 308 308 306 302 297 291 285 280 274 268 264 264 267 265 264 263 262 262 261 259 258 256 256 259 257 257 256 256 256 258 259 259 259 257 257 259 260 260 261 262 265 269
310 310 310 309 306 302 297 291 284 276 271 269 269 268 266 266 265 264 261 259 258 257 257 257 259 260 258 255 255 256 258 257 258 259 257 258 259 260 262 262 262 265 267
311 311 309 307 306 303 298 291 283 279 276 274 272 270 267 266 266 265 262 261 260 259 258 258 259 259 257 254 254 255 256 256 258 259 258 259 258 260 262 262 263 265 266
312 312 310 306 306 303 297 291 287 284 281 279 277 275 272 269 267 264 262 262 262 259 258 260 259 257 255 253 253 254 255 257 258 260 258 258 256 258 260 261 263 266 267
312 312 309 307 306 302 296 291 290 289 287 284 281 279 275 269 266 265 263 264 264 261 259 259 259 258 255 252 252 252 254 257 259 260 260 258 258 258 260 262 264 267 268
310 309 309 308 306 302 297 292 291 291 289 286 283 280 275 270 268 266 265 266 265 263 260 258 258 257 255 253 253 253 254 256 256 258 259 258 259 260 262 264 265 266 266
309 309 308 307 307 303 298 294 293 292 290 288 285 283 276 271 270 268 267 266 264 263 260 259 259 257 255 254 255 255 254 254 255 258 259 257 258 259 263 266 266 266 268
309 309 308 306 303 301 299 296 294 293 292 288 285 283 278 273 271 269 267 266 265 263 262 261 261 259 257 255 256 254 252 253 255 257 258 258 258 261 264 266 268 267 268
308 308 307 304 301 299 298 297 296 295 293 289 285 282 278 274 271 270 268 266 266 264 263 263 261 259 256 255 256 255 252 252 254 254 255 258 259 263 265 265 268 268 268
308 307 304 302 300 297 297 297 296 294 292 288 284 281 278 275 273 270 267 267 267 266 264 262 259 258 257 257 255 253 251 254 255 254 255 257 260 263 264 264 266 265 267
307 305 303 300 298 296 295 295 296 294 290 287 284 282 278 276 274 272 268 268 270 270 267 263 259 256 258 259 255 252 252 254 254 255 257 259 262 264 264 263 263 265 266
304 304 303 299 297 296 296 295 295 292 289 287 285 283 280 276 272 269 268 269 270 268 266 263 261 260 261 259 254 251 252 253 255 258 259 259 261 262 263 263 264 264 265
301 301 300 298 296 296 296 295 294 290 288 286 283 282 280 275 270 268 269 270 268 269 268 264 261 262 262 259 254 251 250 252 255 257 257 257 259 260 263 264 265 265 266
298 298 296 295 294 294 293 293 293 290 287 285 283 280 276 274 271 270 271 272 272 271 267 265 264 263 262 258 255 251 248 251 254 254 256 257 260 261 263 265 266 264 264
295 295 294 292 292 293 292 290 289 287 284 283 282 279 277 275 273 272 272 274 271 269 266 265 263 260 256 255 254 253 251 252 252 253 255 258 260 263 265 264 263 263 263
294 293 292 291 290 291 290 288 287 285 283 282 281 278 276 274 274 276 275 273 270 267 266 265 261 258 255 254 255 254 253 252 252 253 255 257 258 261 262 261 261 261 260
292 291 290 289 289 289 288 286 285 283 281 280 279 277 274 273 275 278 277 273 271 268 266 264 260 256 254 253 253 253 253 252 251 253 253 254 254 256 258 257 255 256 255
291 290 289 289 288 288 286 284 283 281 279 279 277 276 273 273 274 276 275 272 270 267 264 261 257 255 253 250 248 248 250 249 248 246 248 250 250 253 256 253 250 248 249
290 288 287 288 287 286 284 283 283 281 280 279 277 273 271 271 271 272 271 268 266 263 259 255 252 251 248 245 243 244 246 247 244 241 244 248 250 253 252 247 244 243 244
289 287 287 287 286 285 284 283 283 282 282 280 277 272 270 270 269 269 269 267 263 257 251 249 249 247 244 240 240 241 241 241 240 242 246 246 246 247 245 240 235 235 235
288 286 286 286 286 285 283 283 284 284 282 279 276 272 269 268 267 266 265 264 260 255 250 247 245 241 237 236 237 239 238 237 238 240 243 243 239 233 227 225 226 228 232
287 285 284 284 285 285 283 283 282 281 281 277 274 272 267 264 262 260 257 258 257 251 247 243 239 235 234 233 234 233 230 229 234 236 236 232 226 218 216 218 221 224 227
286 284 284 283 284 285 283 281 279 278 275 274 273 270 265 262 259 255 252 250 249 248 244 240 234 231 228 226 228 227 225 227 231 230 225 219 217 214 211 212 213 216 221
284 284 284 283 284 284 282 280 278 274 272 271 270 267 261 258 253 250 249 246 245 244 240 233 227 225 224 223 222 218 217 217 220 221 218 212 208 208 210 210 209 211 215
Height
5581 5578 5574 5570 5567 5564 5563 5563 5564 5565 5567 5569 5573 5576 5578 5580 5583 5585 5587 5589 5591 5593 5596 5599 5603 5606 5608 5612 5615 5618 5620 5623 5627 5631 5634 5638 5641 5643 5645 5647 5649 5650 5651
5575 5571 5567 5563 5560 5557 5555 5554 5555 5556 5558 5561 5563 5566 5568 5570 5572 5574 5576 5578 5580 5582 5585 5588 5592 5594 5597 5601 5604 5607 5610 5612 5615 5619 5623 5626 5629 5632 5634 5636 5638 5639 5640
5570 5565 5561 5557 5554 5551 5549 5548 5547 5548 5550 5552 5555 5557 5559 5560 5562 5563 5565 5567 5570 5572 5575 5578 5581 5583 5586 5590 5594 5597 5600 5602 5605 5607 5612 5615 5618 5620 5622 5625 5626 5628 5629
5565 5560 5556 5552 5548 5545 5543 5542 5541 5542 5543 5545 5547 5548 5549 5551 5552 5554 5555 5557 5560 5563 5566 5568 5571 5573 5576 5579 5583 5586 5589 5591 5594 5596 5600 5604 5606 5609 5611 5613 5615 5617 5618
5560 5555 5551 5547 5543 5540 5538 5536 5536 5536 5537 5538 5539 5540 5541 5542 5543 5544 5546 5548 5551 5554 5556 5559 5561 5563 5566 5569 5572 5575 5578 5580 5583 5585 5589 5592 5595 5598 5601 5603 5604 5606 5607
5555 5551 5546 5542 5539 5536 5533 5532 5531 5530 5531 5531 5531 5532 5532 5533 5534 5536 5537 5540 5542 5545 5547 5549 5551 5553 5556 5558 5561 5564 5567 5570 5572 5575 5578 5581 5585 5588 5590 5592 5593 5594 5596
5550 5546 5542 5538 5534 5531 5529 5527 5525 5525 5524 5524 5524 5524 5525 5526 5527 5528 5529 5531 5534 5536 5538 5540 5542 5544 5546 5549 5551 5554 5557 5559 5562 5565 5568 5571 5574 5577 5579 5581 5582 5583 5585
5546 5542 5537 5533 5530 5526 5524 5522 5521 5520 5519 5518 5517 5517 5518 5518 5519 5521 5522 5524 5526 5528 5529 5531 5534 5535 5537 5539 5542 5545 5547 5550 5552 5555 5558 5561 5563 5565 5568 5570 5571 5573 5574
5541 5537 5532 5528 5525 5521 5519 5517 5515 5514 5512 5511 5511 5511 5511 5511 5512 5513 5514 5516 5518 5519 5521 5523 5525 5527 5528 5530 5533 5535 5538 5541 5543 5545 5548 5551 5553 5555 5557 5559 5561 5562 5564
5536 5532 5527 5523 5520 5517 5514 5512 5510 5508 5507 5506 5505 5504 5504 5505 5505 5506 5507 5508 5510 5511 5513 5514 5516 5518 5519 5521 5523 5526 5529 5531 5534 5536 5539 5541 5543 5545 5547 5549 5551 5552 5554
5530 5526 5522 5518 5514 5512 5509 5507 5505 5503 5501 5500 5499 5498 5498 5498 5498 5499 5499 5500 5502 5503 5505 5506 5508 5509 5510 5512 5514 5517 5520 5522 5524 5527 5530 5532 5534 5536 5538 5540 5542 5543 5545
5524 5521 5517 5513 5509 5506 5504 5501 5499 5497 5495 5494 5493 5493 5492 5491 5491 5492 5493 5494 5495 5496 5497 5498 5499 5501 5502 5504 5506 5509 5511 5513 5516 5518 5521 5523 5526 5528 5529 5531 5533 5534 5536
5518 5514 5511 5507 5504 5501 5498 5496 5493 5491 5489 5488 5487 5487 5486 5486 5486 5486 5487 5487 5488 5489 5490 5490 5491 5493 5494 5496 5498 5500 5503 5505 5507 5510 5513 5515 5517 5519 5521 5523 5524 5526 5527
5511 5507 5504 5501 5498 5495 5492 5489 5487 5485 5483 5482 5481 5480 5480 5480 5479 5480 5480 5481 5481 5482 5483 5483 5484 5485 5487 5489 5490 5492 5494 5497 5500 5502 5505 5507 5509 5511 5513 5515 5516 5518 5519
5503 5500 5497 5494 5491 5489 5486 5483 5480 5478 5476 5475 5474 5473 5473 5473 5473 5473 5473 5474 5474 5475 5475 5477 5478 5479 5480 5481 5483 5485 5487 5490 5492 5494 5497 5500 5502 5504 5506 5507 5509 5510 5512
5495 5492 5489 5486 5483 5481 5478 5476 5473 5471 5470 5468 5467 5466 5466 5466 5466 5466 5466 5466 5467 5467 5468 5470 5471 5472 5473 5475 5476 5478 5481 5483 5485 5488 5490 5493 5495 5497 5499 5500 5502 5503 5505
5486 5483 5480 5477 5475 5472 5470 5468 5467 5465 5463 5462 5460 5459 5459 5458 5458 5459 5459 5460 5460 5460 5461 5463 5464 5465 5466 5468 5470 5471 5474 5476 5478 5481 5484 5486 5488 5490 5492 5493 5495 5496 5498
5476 5473 5471 5468 5466 5464 5462 5460 5458 5457 5456 5455 5454 5453 5452 5452 5451 5452 5452 5452 5453 5453 5454 5455 5457 5458 5460 5461 5463 5465 5467 5469 5472 5474 5477 5479 5481 5483 5485 5487 5488 5490 5492
5466 5464 5461 5459 5457 5455 5453 5451 5450 5449 5448 5448 5447 5446 5445 5445 5444 5444 5444 5445 5445 5446 5447 5448 5450 5451 5453 5455 5456 5459 5461 5463 5465 5468 5470 5473 5475 5477 5479 5481 5482 5484 5486
5456 5454 5451 5449 5448 5446 5444 5442 5441 5440 5439 5439 5439 5438 5437 5437 5437 5437 5437 5437 5438 5439 5440 5441 5443 5444 5446 5449 5451 5453 5455 5457 5460 5462 5465 5467 5469 5471 5473 5475 5477 5479 5481
5446 5444 5442 5440 5438 5436 5434 5433 5432 5431 5430 5430 5429 5429 5429 5429 5430 5430 5430 5430 5431 5432 5433 5435 5436 5438 5441 5443 5445 5447 5450 5452 5455 5457 5460 5462 5464 5466 5468 5470 5472 5474 5476
5436 5434 5432 5430 5428 5427 5425 5424 5423 5422 5421 5421 5420 5420 5421 5421 5422 5422 5423 5424 5425 5426 5427 5429 5431 5433 5435 5437 5440 5442 5445 5447 5450 5452 5455 5457 5459 5461 5463 5465 5467 5470 5472
5426 5425 5423 5421 5420 5418 5417 5415 5414 5414 5413 5412 5412 5413 5413 5414 5414 5415 5416 5418 5419 5420 5421 5423 5426 5428 5430 5432 5435 5437 5440 5443 5445 5448 5450 5452 5454 5457 5459 5461 5464 5467 5469
5417 5415 5414 5413 5411 5410 5409 5408 5407 5406 5405 5405 5405 5406 5406 5407 5408 5409 5411 5412 5413 5415 5417 5418 5421 5423 5425 5428 5430 5433 5436 5439 5441 5444 5446 5448 5450 5453 5455 5458 5461 5463 5466
5408 5406 5405 5404 5403 5402 5401 5400 5399 5398 5398 5398 5398 5399 5400 5401 5402 5404 5405 5407 5408 5410 5412 5414 5416 5418 5421 5423 5426 5429 5432 5434 5437 5440 5442 5444 5447 5449 5452 5455 5458 5460 5463
5399 5398 5396 5395 5394 5394 5393 5392 5392 5392 5392 5392 5392 5393 5393 5395 5396 5398 5400 5402 5403 5405 5407 5409 5411 5414 5417 5420 5422 5425 5428 5431 5434 5436 5439 5441 5444 5446 5449 5452 5455 5458 5460